Weather History for Joplin, MO

Change the Weather History Date:

Sunday, May 5, 2013

  Actual Average Record
Temperature  
Mean Temperature 47 °F 64 °F  
Max Temperature 58 °F 75 °F 91 °F (2014)
Min Temperature 35 °F 53 °F 35 °F (2013)
Degree Days  
Heating Degree Days 18 3  
Month to date heating degree days 89 19  
Since 1 July heating degree days 4193 4022  
Cooling Degree Days 0 3  
Month to date cooling degree days 5 11  
Year to date cooling degree days 35 65  
Moisture  
Dew Point 44 °F    
Average Humidity 86    
Maximum Humidity 100    
Minimum Humidity 71    
Precipitation  
Precipitation 0.00 in 0.20 in 3.38 in (1960)
Month to date precipitation 1.33 0.97  
Year to date precipitation 15.83 13.21  
Snow  
Snow 0.00 in - - ()
Month to date snowfall 0.0  
Since 1 July snowfall 5.7  
Snow Depth 0.00 in    
Sea Level Pressure  
Sea Level Pressure 30.07 in    
Wind  
Wind Speed 5 mph (NW)    
Max Wind Speed 15 mph    
Max Gust Speed 18 mph    
Visibility 10 miles    
Events      
T = Trace of Precipitation, MM = Missing Value Source: NWS Daily Summary

Daily Weather History Graph

Daily Weather History Graph

Search for Another Location

Airport:

Trip Planner

Search our weather history database for the weather conditions in past years. The results will help you decide how hot, cold, wet, or windy it might be!

Date:

Astronomy

May. 05, 2013 Rise Set
Actual Time 6:18 AM CDT 8:11 PM CDT
Civil Twilight 5:50 AM CDT 8:39 PM CDT
Nautical Twilight 5:16 AM CDT 9:13 PM CDT
Astronomical Twilight 4:39 AM CDT 9:50 PM CDT
Moon 3:43 AM CDT (5/5) 4:16 PM CDT (5/5)
Length of Visible Light 14h 49m
Length of Day
13h 52m
Waning Crescent, 18% of the Moon is Illuminated
May 5
Waning Crescent
May 9
New
May 17
First Quarter
May 24
Full
May 31
Last Quarter

Hourly Weather History & Observations

Time (CDT) Temp. Windchill Dew Point Humidity Pressure Visibility Wind Dir Wind Speed Gust Speed Precip Events Conditions
12:53 AM 37.0 °F 34.5 °F 35.1 °F 93% 30.06 in 10.0 mi WNW 3.5 mph - N/A   Clear
1:53 AM 35.1 °F - 34.0 °F 96% 30.05 in 10.0 mi Calm Calm - N/A   Clear
2:53 AM 35.1 °F - 34.0 °F 96% 30.03 in 10.0 mi Calm Calm - N/A   Mostly Cloudy
3:53 AM 37.9 °F - 37.0 °F 97% 30.05 in 10.0 mi Calm Calm - N/A   Overcast
4:53 AM 39.9 °F 37.8 °F 39.0 °F 97% 30.06 in 10.0 mi West 3.5 mph - N/A   Overcast
5:53 AM 41.0 °F - 39.9 °F 96% 30.06 in 10.0 mi North - - N/A   Overcast
6:53 AM 41.0 °F - 39.9 °F 96% 30.07 in 10.0 mi Calm Calm - N/A   Overcast
7:22 AM 42.8 °F 39.3 °F 41.0 °F 93% 30.07 in 10.0 mi NW 5.8 mph - N/A   Overcast
7:53 AM 43.0 °F 39.5 °F 42.1 °F 97% 30.09 in 10.0 mi NW 5.8 mph - N/A   Overcast
8:53 AM 46.0 °F 43.1 °F 42.1 °F 86% 30.11 in 10.0 mi NNW 5.8 mph - N/A   Overcast
9:53 AM 46.0 °F 43.1 °F 44.1 °F 93% 30.11 in 10.0 mi WNW 5.8 mph - N/A   Overcast
10:53 AM 50.0 °F - 46.0 °F 86% 30.11 in 10.0 mi North 6.9 mph - N/A   Overcast
11:53 AM 53.1 °F - 44.1 °F 71% 30.12 in 10.0 mi Variable 6.9 mph - N/A   Overcast
1:53 PM 54.0 °F - 46.9 °F 77% 30.09 in 10.0 mi NNW 10.4 mph - N/A   Mostly Cloudy
2:53 PM 54.0 °F - 46.9 °F 77% 30.09 in 10.0 mi NW 13.8 mph 18.4 mph N/A   Overcast
3:53 PM 55.0 °F - 48.0 °F 77% 30.08 in 10.0 mi NW 8.1 mph - N/A   Overcast
4:53 PM 57.0 °F - 48.0 °F 72% 30.06 in 10.0 mi WNW 13.8 mph - N/A   Overcast
5:53 PM 55.0 °F - 48.0 °F 77% 30.06 in 10.0 mi WNW 12.7 mph - N/A   Overcast
6:53 PM 55.0 °F - 46.9 °F 74% 30.06 in 10.0 mi NW 11.5 mph - N/A   Mostly Cloudy
7:53 PM 53.1 °F - 48.0 °F 83% 30.05 in 10.0 mi West 6.9 mph - N/A   Scattered Clouds
8:34 PM 51.8 °F - 48.2 °F 88% 30.06 in 10.0 mi NW 5.8 mph - N/A   Mostly Cloudy
8:53 PM 51.1 °F - 48.0 °F 89% 30.06 in 9.0 mi WNW 6.9 mph - N/A   Mostly Cloudy
9:08 PM 50.0 °F - 46.4 °F 87% 30.06 in 9.0 mi WNW 6.9 mph - N/A   Scattered Clouds
9:17 PM 50.0 °F - 48.2 °F 94% 30.07 in 7.0 mi WNW 8.1 mph - N/A   Mostly Cloudy
9:53 PM 50.0 °F - 46.9 °F 89% 30.08 in 10.0 mi NW 6.9 mph - N/A   Scattered Clouds
10:53 PM 48.9 °F - 46.0 °F 90% 30.08 in 10.0 mi WNW 6.9 mph - N/A   Mostly Cloudy
11:53 PM 48.9 °F - 46.9 °F 93% 30.08 in 10.0 mi NW 5.8 mph - N/A   Mostly Cloudy